Starlink 30980

operational
NORAD ID: 58476 Int'l Des: 2023-186 Owner: SPXS Country: US Constellation: starlink
LEOCIRCULAR

About Starlink 30980

Description loading...

Live Position

Loading 3D Globe...

Upcoming Passes

Altitude History

Altitude vs Time

uPlot chart will show altitude changes over time

Two-Line Element Set

1 58476U 23186D 25303.68769969 .00001753 00000-0 14478-3 0 9996
2 58476 43.0042 54.0313 0001368 271.5446 88.5240 15.02538783106295
Epoch: Oct 30, 2025 • Age: 27 hours

Current Status

Altitude 558.5 km
Velocity 7.59 km/s
Sub-Earth Point 17.82°N, 91.36°E
Launch Date Dec 3, 2023
Age 1.9 years
Type internet

Technical Details

Classification Payload
Mass 730.00 kg
Dry Mass 700.00 kg
Total Mass 730.00 kg
Length 0.30 m
Diameter 4.10 m
Span 29.00 m
Shape Box + pan
Manufacturer SPXS
Bus Type Starlink V2M
Phase Status In Orbit
Owner/State SPXS/US

Large Constellations

Loading constellations...